Regional Weather Roundup
Issued by NWS Charleston, SC

Current Version | Previous Version | Graphics & Text | Print | Product List | Glossary On
Versions: 1 2 3 4 5 6 7 8 9 10 11 12 13 14 15 16 17 18 19 20 21 22 23 24 25 26 27 28 29 30 31 32 33 34 35 36 37 38 39 40 41 42 43 44 45 46 47 48 49 50
000
ASUS42 KCHS 231025
RWRCHS

REGIONAL WEATHER ROUNDUP
NATIONAL WEATHER SERVICE CHARLESTON SC
600 AM EDT WED APR 23 2014

NOTE: "FAIR" INDICATES FEW OR NO CLOUDS BELOW 12,000 FEET WITH NO
SIGNIFICANT WEATHER AND/OR OBSTRUCTIONS TO VISIBILITY.

NOT ALL STATIONS ARE QUALITY CONTROLLED BY THE NATIONAL
WEATHER SERVICE. USE DATA WITH CAUTION...ESPECIALLY
DEWPOINT OBSERVATIONS.

SCZ027-030-031-034>040-042>050-231100-
...SOUTH CAROLINA...

CITY           SKY/WX    TMP DP  RH WIND       PRES   REMARKS
N CHARLESTON   PTCLDY    63  59  88 W6        29.80R FOG
WATERFRONT PRK   N/A     64 N/A N/A W8          N/A
FORT JOHNSON     N/A     63  63 100 NW12      29.83R
MOUNT PLEASANT LGT RAIN  63  61  94 W6        29.79R
JOHNS ISLAND   SUNNY     63  63 100 W8        29.80R FOG
PINOPOLIS        N/A     64  61  88 W7        29.68F
MONCKS CORNER  FAIR      61  61 100 CALM      29.78R FOG
SUMMERVILLE    NOT AVBL
BEAUFORT MCAS  CLEAR     63  60  90 NW7       29.81R
BEAUFORT ARPT  FAIR      63  63 100 W8        29.81R
HILTON HEAD IS NOT AVBL
GEORGETOWN     NOT AVBL
WALTERBORO     MOSUNNY   59 N/A N/A W5        29.82R FOG
ORANGEBURG     CLEAR     60  57  89 NW5       29.80R FOG
BARNWELL       FOG       55  55 100 CALM      29.82R VSB<1/4
AIKEN          FAIR      55  55 100 CALM      29.84R FOG
MANNING        FAIR      61 N/A N/A CALM      29.78R
KINGSTREE      NOT AVBL
COLUMBIA       CLEAR     56  55  97 CALM      29.78S FOG
SUMTER         CLEAR     59  59 100 W8        29.77R
FLORENCE       CLEAR     61  59  93 W7        29.76R FOG
MYRTLE BEACH   CLEAR     61  57  88 W8        29.75R
N MYRTLE BEACH CLEAR     61  59  93 W6        29.74R

$$

GAZ063-065-086>088-099>101-113>116-118-119-134-136>141-150-231100-
...GEORGIA...

CITY           SKY/WX    TMP DP  RH WIND       PRES   REMARKS
SAVANNAH ARPT  CLOUDY    62  60  93 W7        29.83R FOG
HUNTER AAF     MOCLDY    59  59 100 W3        29.82R FOG
FORT STEWART   CLEAR     60  60 100 W6        29.82S
STATESBORO     NOT AVBL
SYLVANIA       SUNNY     61  59  91 NW3       29.84R FOG
CLAXTON        CLOUDY   N/A N/A N/A CALM      29.85R FOG
THOMSON        CLEAR     58  58 100 W3        29.87R
AUGUSTA-BUSH   PTCLDY    52  51  97 CALM      29.82R FOG
AUGUSTA-DANIEL CLEAR     61  59  93 NW6       29.82R
SWAINSBORO     CLOUDY    59  59 100 W5        29.85R FOG
VIDALIA        CLEAR     59  59 100 CALM      29.85R FOG
ALMA           CLEAR     61  58  90 SW5       29.85S FOG
WAYCROSS       NOT AVBL
JESUP          FAIR      55  55 100 CALM      29.86R FOG
BRUNSWICK      CLEAR     63  61  94 W7        29.87R
SAINT SIMONS   LGT RAIN  63  61  93 W7        29.85R

$$

SCZ027-028-034-036>038-045-046-048>050-GAZ119-141-231100-
...LAKE AND SUPPLEMENTAL COASTAL OBSERVATIONS...

STATION/POSITION TIME  TEMP    WIND        PRES    WAVE   SWELL
                       AIR SEA DIR/SP/G            HT/PER HT/PER/DIR
                 (UTC) (F)     (DEG/KT/KT) (MB)    (FT/S) (FT/S/D)
UPR LAKE MARION  NOT AVBL
WINYAH BAY       1000   62     280/  7     1007.0S
LAKE MURRAY      0900   60     260/  5/  6 1008.5R
ACE BASIN NERRS  1000   62     280/  2     1009.0S
FORT PULASKI     NOT AVBL
SAPELO ISLAND    1000   64     260/  7     1011.0R

$$

ANZ835-935-AMZ111-154-330-350-352-354-374-450-454-472-231100-
...C-MAN AND BUOY OBSERVATIONS...

STATION/POSITION TIME  TEMP    WIND        PRES    WAVE   SWELL
                       AIR SEA DIR/SP/G            HT/PER HT/PER/DIR
                 (UTC) (F)     (DEG/KT/KT) (MB)    (FT/S) (FT/S/D)
FOLLY BEACH CMAN 1000   63     270/  6/  9 1009.1R
BUOY 41004       1000   66 69  260/ 14/ 16 1008.0R   3/ 9   2/ 9
BUOY 41008       1000   65 64  260/ 12/ 14 1010.1R   2/ 9   2/100/ 9
5E ST. MARYS GA  1000      65                N/A     2/10   2/ 70/11
FRYING PAN BUOY  1000   65 67  280/ 16/ 19 1006.3R   4/ 6   2/ 90/ 8
BUOY 41025       1000   69 76  280/ 19/ 23 1003.2R   5/ 7   3/210/ 7
CAPE LOOKOUT NC  1000   61     250/ 11/ 14 1005.0R
BUOY 41002       NOT AVBL
BUOY 41010       1000   75 75  240/ 14/ 16 1011.0R   4/ 9   3/ 60/ 9
BUOY 41012       NOT AVBL
ST AUGUSTINE FL  1000   62     280/  9/ 11 1012.2R
CAPERS NEARSHORE NOT AVBL
FRIPP NEARSHORE  0900   64     290/ 12/ 12   N/A


$$



USA.gov is the U.S. government's official web portal to all federal, state and local government web resources and services.